Zurück zum Katalog

COSMOS 249 DEB

AktivLEO
NORAD 3874·DEBRIS·🇷🇺 Russia

Gestartet Oct 20, 1968 von Baikonur Cosmodrome

Loading…

Nächste Überflüge (nächste 24 Stunden)

TLE

AktuellSource: Space-Track

Epoche: Sep 14, 2026, 00:08 UTC

1 03874U 68091BH  26257.00566491  .00000662  00000-0  69892-3 0  9990
2 03874  62.2529 107.8389 0604964 211.9155 144.3835 13.21054369712405

Verfolge COSMOS 249 DEB in Echtzeit mit AllMySat

Download on the App Store